Location: Brede
(50.9167°N, 0.6000°E)
Time: 02:31:08
(UTC+00:00)

Meteor 1-21 Rocket - Pass Details

Date: 08 August 2020
Orbit: 832 x 908 km, 81.2° (Epoch: 19 September)

Event Time Altitude Azimuth Distance (km) Brightness Sun altitude
Rises 03:02:52 0° 347° (NNW) 3,416 7.8 -12.4°
Reaches altitude 10° 03:05:18 10° 347° (NNW) 2,469 7.1 -12.1°
Maximum altitude 03:10:54 88° 260° (W) 842 4.2 -11.5°
Drops below altitude 10° 03:16:25 10° 170° (S) 2,437 6.3 -10.9°
Sets 03:18:48 0° 170° (S) 3,368 7.0 -10.6°
